Overview Statistics Trail Chart Weather Telemetry Raw packets
 

This is the latest recevied weather packets stored in our database for station/object ER1XDX-15. If no packets are shown the sender has not sent any weather packets the latest 10 day(s).

<< 17 18 19 20 21 22 23 >>
Time Temp. Humidity Pressure Rain* Wind** Luminosity Snow
1777300433 21.67° C 29% 1009.7 hPa - - - -
1777299533 21.67° C 26% 1009.7 hPa - - - -
1777298633 21.67° C 29% 1009.7 hPa - - - -
1777297733 21.67° C 31% 1009.9 hPa - - - -
1777296833 21.67° C 32% 1010 hPa - - - -
1777295933 21.67° C 31% 1010.1 hPa - - - -
1777295032 21.67° C 30% 1010.4 hPa - - - -
1777294132 21.67° C 30% 1010.7 hPa - - - -
1777293232 21.67° C 29% 1010.6 hPa - - - -
1777292332 21.67° C 27% 1010.8 hPa - - - -
1777291432 21.11° C 28% 1010.9 hPa - - - -
1777290532 21.11° C 26% 1011.1 hPa - - - -
1777289632 21.11° C 25% 1011.3 hPa - - - -
1777288732 21.11° C 27% 1011.6 hPa - - - -
1777287832 21.11° C 26% 1011.6 hPa - - - -
1777286932 20.56° C 24% 1011.8 hPa - - - -
1777286031 20° C 24% 1011.9 hPa - - - -
1777285131 19.44° C 23% 1012.3 hPa - - - -
1777284231 20.56° C 24% 1012.3 hPa - - - -
1777283331 18.89° C 25% 1012.6 hPa - - - -
1777282431 19.44° C 24% 1012.7 hPa - - - -
1777281531 19.44° C 24% 1013.1 hPa - - - -
1777280631 18.89° C 21% 1013.2 hPa - - - -
1777279731 18.89° C 22% 1013.3 hPa - - - -
1777278831 18.89° C 22% 1013.6 hPa - - - -

* Rain since midnight (hover to see other rain measurements)
** Current wind speed in m/s (hover to see current wind gust speed)